[[{"header":{"parameterUnit":"m.s-1","parameterCategory":1,"la1":30.2991,"la2":30.254,"lo1":-89.0895,"lo2":-89.0444,"dy":0.0017,"dx":0.0017,"nx":28,"ny":28,"refTime":"2024-12-20T09:00:00:Z","depth":0,"parameterNumber":2,"parameterNumberName":"U-component_of_WINDS"},"data":[0,0,0,0,0,0,0,0,0,0,0,0,0,0,0,0,0,0,0,0,0,0,0,0,0,0,0,0,0,0,0,0,0,0,0,0,0,0,0,0,0,0,0,0,0,0,0,0,0,0,0,0,0,0,0,0,0,0,-1.8003,-1.8004,0,-1.8062,-1.8062,-1.8063,-1.8009,-1.8007,-1.8005,-1.8003,-1.8063,-1.8067,-1.807,0,0,0,0,0,0,0,0,0,0,0,0,0,-1.7846,-1.7849,-1.8003,-1.8004,-1.8005,-1.8061,-1.8062,-1.8063,-1.8009,-1.8007,-1.8004,-1.8002,-1.8062,-1.8066,-1.807,0,0,0,0,0,0,0,0,0,0,0,0,0,-1.791,-1.785,-1.8003,-1.7985,-1.7984,-1.8061,-1.8062,-1.8063,-1.801,-1.8007,-1.8003,-1.8,-1.806,-1.8066,-1.8071,-1.817,0,0,-1.8088,-1.809,0,0,0,0,0,0,0,0,-1.7906,-1.7916,-1.7987,-1.7986,-1.7985,-1.8025,-1.8029,-1.8099,-1.8011,-1.8,-1.8003,-1.7999,-1.8053,-1.8059,-1.8077,-1.8173,-1.8175,-1.8088,-1.8091,-1.8094,-1.8095,0,0,0,0,0,0,0,-1.7902,-1.7913,-1.8026,-1.7988,-1.7987,-1.7974,-1.7979,-1.8042,-1.8044,-1.8001,-1.7997,-1.8005,-1.8052,-1.8072,-1.8078,-1.8176,-1.8088,-1.8093,-1.8096,-1.8098,-1.8355,-1.8358,0,0,0,0,0,0,-1.79,-1.791,-1.8025,-1.8028,-1.7937,-1.7979,-1.7985,-1.8015,-1.8043,-1.8044,-1.8007,-1.8002,-1.8064,-1.8072,-1.808,-1.8197,-1.8094,-1.8099,-1.8102,-1.8351,-1.8355,-1.8359,0,0,0,0,0,0,-1.7896,-1.791,-1.8022,-1.7968,-1.7981,-1.7985,-1.8019,-1.8018,-1.8038,-1.8048,-1.8048,-1.8027,-1.8062,-1.8072,-1.8147,-1.8198,-1.8101,-1.8106,-1.8347,-1.8352,-1.8357,-1.8433,0,0,0,0,0,0,-1.7892,-1.791,-1.7947,-1.7969,-1.7984,-1.809,-1.8023,-1.8022,-1.8047,-1.8041,-1.8067,-1.8068,-1.806,-1.814,-1.8153,-1.8204,-1.811,-1.8342,-1.8349,-1.8356,-1.8426,-1.844,-1.8452,0,0,0,0,0,-1.7887,-1.7967,-1.795,-1.7964,-1.8032,-1.8093,-1.8101,-1.809,-1.8052,-1.809,-1.8096,-1.8067,-1.819,-1.8148,-1.8162,-1.8216,-1.8339,-1.8347,-1.8355,-1.842,-1.8437,-1.8452,0,0,0,0,0,0,-1.7952,-1.7969,-1.7951,-1.804,-1.8065,-1.8083,-1.8131,-1.8109,-1.8146,-1.8138,-1.8122,-1.8129,-1.8208,-1.8219,-1.8172,-1.8312,-1.8258,-1.827,-1.8303,-1.8319,-1.8332,-1.8329,-1.8115,0,0,0,0,0,-1.7976,-1.8024,-1.8037,-1.8114,-1.8128,-1.8127,-1.8153,-1.8142,-1.8168,-1.8178,-1.819,-1.8216,-1.826,-1.829,-1.8331,-1.8426,-1.8431,-1.847,-1.8483,-1.8494,-1.8504,-1.8555,-1.8572,-1.8385,-1.8385,-1.8385,0,0,-1.8028,-1.8043,-1.8075,-1.8128,-1.8146,-1.8196,-1.8137,-1.8192,-1.8229,-1.8187,-1.8259,-1.8268,-1.8296,-1.8381,-1.842,-1.8393,-1.8557,-1.8504,-1.8513,-1.8517,-1.8565,-1.8582,-1.8598,-1.8391,-1.839,-1.8389,0,0,-1.8147,-1.8164,-1.823,-1.8249,-1.8277,-1.8276,-1.8292,-1.8313,-1.8318,-1.8389,-1.8358,-1.8402,-1.8478,-1.8499,-1.852,-1.8646,-1.8621,-1.8659,-1.8729,-1.8778,-1.8793,-1.8806,-1.8851,-1.8867,-1.8669,-1.8669,-1.867,0,-1.8208,-1.8282,-1.8267,-1.8325,-1.8349,-1.8312,-1.8379,-1.8398,-1.8438,-1.8456,-1.8425,-1.852,-1.8536,-1.8625,-1.8656,-1.8674,-1.8691,-1.8657,-1.8792,-1.8805,-1.8817,-1.8859,-1.8876,-1.8674,-1.8673,-1.8673,-1.8673,0,-1.8356,-1.8407,-1.8458,-1.8497,-1.8526,-1.8588,-1.8582,-1.8614,-1.86,-1.8602,-1.8675,-1.8692,-1.8736,-1.8756,-1.8743,-1.8844,-1.8826,-1.8794,-1.874,-1.8839,-1.8879,-1.8896,-1.8681,-1.8679,-1.8678,-1.8676,0,0,-1.852,-1.8549,-1.8568,-1.8585,-1.8612,-1.8651,-1.8711,-1.8753,-1.8781,-1.8809,-1.8859,-1.8924,-1.8894,-1.8917,-1.8906,-1.8949,-1.9047,-1.8911,-1.8911,-1.8936,-1.9159,-1.9184,-1.9203,-1.903,-1.9033,-1.9035,-1.9157,0,-1.8641,-1.8745,-1.8733,-1.8832,-1.8879,-1.8844,-1.8896,-1.8918,-1.8921,-1.8961,-1.8963,-1.901,-1.8967,-1.898,-1.9021,-1.9027,-1.9092,-1.9017,-1.9076,-1.9079,-1.9072,-1.9224,-1.9251,-1.9365,-1.9172,-1.9175,-1.9177,0,-1.8797,-1.8831,-1.8935,-1.8953,-1.8973,-1.902,-1.9057,-1.9096,-1.912,-1.9119,-1.9144,-1.9125,-1.9184,-1.9127,-1.9209,-1.9158,-1.9181,-1.9187,-1.9191,-1.9197,-1.9135,-1.9235,-1.9401,-1.9418,-1.9201,-1.9199,-1.9197,0,-1.8908,-1.8978,-1.9049,-1.9065,-1.9089,-1.9122,-1.9134,-1.9154,-1.918,-1.9212,-1.9229,-1.9268,-1.929,-1.932,-1.9311,-1.9271,-1.9394,-1.9337,-1.9395,-1.9396,-1.9425,-1.9423,-1.9597,-1.9438,-1.9437,-1.9437,-1.9437,0,-1.9045,-1.911,-1.9099,-1.9143,-1.9215,-1.9199,-1.927,-1.9277,-1.9295,-1.934,-1.9311,-1.9353,-1.9338,-1.938,-1.9373,-1.9441,-1.9451,-1.9452,-1.945,-1.9455,-1.9455,-1.9471,-1.9463,-1.9442,-1.9441,-1.944,-1.9439,0,-1.9181,-1.9176,-1.9252,-1.9267,-1.9273,-1.9325,-1.9338,-1.9379,-1.9378,-1.9435,-1.9447,-1.9447,-1.9494,-1.9487,-1.954,-1.9535,-1.962,-1.9608,-1.9613,-1.961,-1.9669,-1.9664,-1.9861,-1.9886,-1.9709,-1.9711,-1.9712,0,-1.927,-1.9319,-1.934,-1.9367,-1.9381,-1.9425,-1.9451,-1.9437,-1.9465,-1.9495,-1.9532,-1.9576,-1.9611,-1.9688,-1.9692,-1.9731,-1.972,-1.9786,-1.9726,-1.973,-1.9722,-1.972,-1.9724,-1.9799,-1.9801,-1.9802,-1.9804,0,-1.9428,-1.9423,-1.9461,-1.9499,-1.9531,-1.956,-1.9586,-1.961,-1.9598,-1.9631,-1.9678,-1.9705,-1.9757,-1.9802,-1.9838,-1.985,-1.9825,-1.9822,-1.9838,-1.9845,-1.9846,-1.9847,-1.9646,-1.9818,-1.9817,-1.9816,-1.9815,-1.9814,-1.9544,-1.9586,-1.9606,-1.965,-1.9668,-1.9692,-1.9731,-1.9735,-1.9775,-1.9816,-1.9805,-1.9859,-1.9879,-1.9926,-1.9941,-1.9983,-1.9958,-1.9981,-1.9987,-1.9993,-2.0,-1.9838,-1.9989,-1.9989,-1.9988,-1.9988,-1.9988,0,-1.9701,-1.9712,-1.9752,-1.9789,-1.9823,-1.9796,-1.9823,-1.9853,-1.9901,-1.9922,-1.9956,-2.001,-2.0052,-2.0059,-2.0099,-2.0131,-2.012,-2.0142,-2.014,-2.0143,-2.002,-2.0002,-2.0149,-2.0149,-2.0149,-2.0149,-2.0149,-2.0149,-1.9787,-1.9856,-1.9853,-1.993,-1.9941,-1.9993,-2.0011,-2.0033,-2.005,-2.0111,-2.0146,-2.015,-2.0165,-2.0206,-2.0243,-2.0243,-2.026,-2.0286,-2.0283,-2.0168,-2.0152,-2.0136,-2.012,-2.0289,-2.029,-2.0402,-2.0403,-2.0404]},{"header":{"parameterUnit":"m.s-1","parameterCategory":1,"la1":30.2991,"la2":30.254,"lo1":-89.0895,"lo2":-89.0444,"dy":0.0017,"dx":0.0017,"nx":28,"ny":28,"refTime":"2024-12-20T09:00:00:Z","depth":0,"parameterNumber":3,"parameterNumberName":"V-component_of_WINDS"},"data":[0,0,0,0,0,0,0,0,0,0,0,0,0,0,0,0,0,0,0,0,0,0,0,0,0,0,0,0,0,0,0,0,0,0,0,0,0,0,0,0,0,0,0,0,0,0,0,0,0,0,0,0,0,0,0,0,0,0,-7.5164,-7.5166,0,-7.5305,-7.5307,-7.5309,-7.5229,-7.5225,-7.5221,-7.5218,-7.5356,-7.5363,-7.537,0,0,0,0,0,0,0,0,0,0,0,0,0,-7.4818,-7.4825,-7.5164,-7.5166,-7.5168,-7.5305,-7.5307,-7.5309,-7.523,-7.5225,-7.522,-7.5216,-7.5353,-7.5362,-7.5371,0,0,0,0,0,0,0,0,0,0,0,0,0,-7.4965,-7.4827,-7.5164,-7.5145,-7.5145,-7.5305,-7.5307,-7.531,-7.5231,-7.5225,-7.5219,-7.5214,-7.535,-7.5361,-7.5372,-7.5557,0,0,-7.5405,-7.541,0,0,0,0,0,0,0,0,-7.4957,-7.4977,-7.5146,-7.5147,-7.5146,-7.5244,-7.5236,-7.5392,-7.5232,-7.5198,-7.5218,-7.5211,-7.5323,-7.5336,-7.5375,-7.5563,-7.5569,-7.5406,-7.5413,-7.5418,-7.5421,0,0,0,0,0,0,0,-7.4946,-7.4971,-7.522,-7.5148,-7.5149,-7.5127,-7.5141,-7.5265,-7.5291,-7.52,-7.5195,-7.5213,-7.5322,-7.5364,-7.5377,-7.5571,-7.5406,-7.5416,-7.5423,-7.5427,-7.5916,-7.5922,0,0,0,0,0,0,-7.4939,-7.4963,-7.5215,-7.5224,-7.5035,-7.5138,-7.5154,-7.5218,-7.529,-7.5295,-7.5218,-7.5209,-7.5349,-7.5365,-7.5382,-7.5602,-7.5418,-7.5428,-7.5434,-7.5909,-7.5917,-7.5924,0,0,0,0,0,0,-7.4931,-7.4962,-7.521,-7.5092,-7.5122,-7.515,-7.5223,-7.5224,-7.5267,-7.5303,-7.5307,-7.5257,-7.5345,-7.5366,-7.5514,-7.5605,-7.5433,-7.5443,-7.5902,-7.5912,-7.592,-7.6044,0,0,0,0,0,0,-7.4922,-7.496,-7.5032,-7.5095,-7.5129,-7.5342,-7.5229,-7.5231,-7.5287,-7.5276,-7.5341,-7.5346,-7.5342,-7.5498,-7.5525,-7.5617,-7.5451,-7.5893,-7.5906,-7.5917,-7.6031,-7.6056,-7.6077,0,0,0,0,0,-7.491,-7.506,-7.5036,-7.5067,-7.522,-7.5347,-7.5367,-7.5361,-7.5295,-7.5366,-7.5389,-7.5344,-7.5591,-7.5514,-7.5543,-7.564,-7.5888,-7.5902,-7.5916,-7.6021,-7.6051,-7.6077,0,0,0,0,0,0,-7.5006,-7.5068,-7.5042,-7.5218,-7.5278,-7.5334,-7.5424,-7.5393,-7.5472,-7.5458,-7.5445,-7.546,-7.5613,-7.5641,-7.5554,-7.5822,-7.5729,-7.575,-7.5798,-7.5827,-7.585,-7.5839,-7.546,0,0,0,0,0,-7.5048,-7.5149,-7.5196,-7.5346,-7.5378,-7.5396,-7.5451,-7.5442,-7.5503,-7.5527,-7.5561,-7.562,-7.571,-7.577,-7.5856,-7.6035,-7.6046,-7.6116,-7.6139,-7.6158,-7.6176,-7.6271,-7.6301,-7.5971,-7.5971,-7.5971,0,0,-7.5135,-7.5181,-7.5245,-7.5367,-7.5413,-7.5514,-7.5418,-7.553,-7.5605,-7.5543,-7.5685,-7.5712,-7.5776,-7.594,-7.6013,-7.5968,-7.627,-7.6176,-7.6191,-7.6199,-7.6289,-7.632,-7.6348,-7.5981,-7.5979,-7.5978,0,0,-7.5346,-7.5392,-7.5522,-7.5569,-7.564,-7.5651,-7.5682,-7.5743,-7.5759,-7.5901,-7.5856,-7.5943,-7.6101,-7.6148,-7.6193,-7.642,-7.6381,-7.6448,-7.6568,-7.666,-7.6686,-7.6709,-7.6789,-7.6818,-7.6466,-7.6467,-7.6467,0,-7.5445,-7.5599,-7.5591,-7.5707,-7.5761,-7.5712,-7.5841,-7.5887,-7.5981,-7.6018,-7.5966,-7.6162,-7.6202,-7.6375,-7.6431,-7.6469,-7.6502,-7.6441,-7.6684,-7.6707,-7.6728,-7.6804,-7.6834,-7.6474,-7.6473,-7.6472,-7.6472,0,-7.5716,-7.5823,-7.5919,-7.6013,-7.6077,-7.6199,-7.6208,-7.6274,-7.6258,-7.6273,-7.6417,-7.6464,-7.6557,-7.6597,-7.6583,-7.6768,-7.6738,-7.6685,-7.6591,-7.6767,-7.6838,-7.6867,-7.6485,-7.6482,-7.648,-7.6478,0,0,-7.5991,-7.608,-7.6115,-7.6157,-7.6231,-7.6312,-7.643,-7.6524,-7.6579,-7.6646,-7.6743,-7.6877,-7.6828,-7.6879,-7.6869,-7.695,-7.7125,-7.6887,-7.6888,-7.6929,-7.7331,-7.7369,-7.7403,-7.71,-7.7105,-7.711,-7.7325,0,-7.6206,-7.6416,-7.6412,-7.6605,-7.6703,-7.6657,-7.676,-7.6815,-7.6832,-7.6915,-7.6933,-7.7028,-7.6958,-7.6988,-7.7066,-7.7088,-7.7206,-7.7072,-7.7188,-7.7192,-7.7173,-7.744,-7.7481,-7.7682,-7.7352,-7.7357,-7.736,0,-7.6484,-7.6562,-7.6766,-7.6824,-7.6865,-7.6958,-7.7042,-7.7123,-7.7183,-7.719,-7.7247,-7.7223,-7.734,-7.7244,-7.7404,-7.7313,-7.736,-7.7377,-7.7385,-7.7395,-7.7286,-7.7456,-7.7746,-7.7776,-7.7404,-7.7401,-7.7398,0,-7.6663,-7.6818,-7.696,-7.6997,-7.7069,-7.7135,-7.7168,-7.7222,-7.7278,-7.7351,-7.7387,-7.7472,-7.7518,-7.7583,-7.7581,-7.7512,-7.7743,-7.7646,-7.7749,-7.775,-7.78,-7.7796,-7.81,-7.7832,-7.7831,-7.7831,-7.783,0,-7.6903,-7.7029,-7.7041,-7.7128,-7.7267,-7.726,-7.7397,-7.7423,-7.7472,-7.7561,-7.7526,-7.761,-7.7604,-7.7688,-7.7687,-7.7819,-7.784,-7.7847,-7.7845,-7.785,-7.7849,-7.7879,-7.7865,-7.7839,-7.7837,-7.7835,-7.7834,0,-7.7126,-7.714,-7.7291,-7.7347,-7.7364,-7.7464,-7.751,-7.7591,-7.7605,-7.7718,-7.7744,-7.7766,-7.7863,-7.7868,-7.798,-7.7979,-7.8138,-7.8122,-7.8119,-7.8115,-7.8218,-7.8207,-7.8551,-7.8595,-7.8299,-7.8302,-7.8304,0,-7.7277,-7.7374,-7.744,-7.7499,-7.7536,-7.763,-7.7687,-7.7683,-7.7743,-7.7819,-7.7891,-7.7985,-7.806,-7.8216,-7.824,-7.8324,-7.8308,-7.8423,-7.832,-7.8322,-7.8308,-7.8302,-7.8311,-7.8442,-7.8446,-7.8448,-7.8451,0,-7.7544,-7.7546,-7.7631,-7.7719,-7.7789,-7.7857,-7.792,-7.7969,-7.7972,-7.8041,-7.8141,-7.8199,-7.8313,-7.8406,-7.8489,-7.8519,-7.8485,-7.8483,-7.8511,-7.8516,-7.851,-7.8513,-7.8172,-7.8475,-7.8472,-7.847,-7.8469,-7.8468,-7.7736,-7.7818,-7.7878,-7.7973,-7.8021,-7.8081,-7.816,-7.8184,-7.8268,-7.8362,-7.8354,-7.8464,-7.8519,-7.8627,-7.8664,-7.8748,-7.8708,-7.8749,-7.8759,-7.8769,-7.8779,-7.8498,-7.8763,-7.8762,-7.8761,-7.8761,-7.876,0,-7.7999,-7.8036,-7.8124,-7.8214,-7.8288,-7.8252,-7.832,-7.8384,-7.8482,-7.8538,-7.8613,-7.8726,-7.8816,-7.8846,-7.8933,-7.8994,-7.8981,-7.9017,-7.9011,-7.9019,-7.881,-7.8777,-7.9026,-7.9026,-7.9026,-7.9026,-7.9026,-7.9026,-7.8146,-7.8283,-7.8292,-7.8452,-7.8486,-7.8596,-7.8637,-7.8691,-7.8736,-7.8865,-7.894,-7.896,-7.9005,-7.9094,-7.9174,-7.918,-7.9213,-7.9256,-7.9256,-7.906,-7.9033,-7.9008,-7.8976,-7.9263,-7.9264,-7.9456,-7.9458,-7.946]}]]